STARLINK-2155, 48557

Orbit data source: Space-Track

STARLINK-2155, 48557 is a payload satellite owned by SpaceX/Seattle (US) in LEO that was launched on Sat, 15 May 2021 UTC via an FALCON 9 launch vehicle from the Air Force Eastern Test Range (AFETR). Payload-class satellites include a variety of spacecraft equipped with specific instruments for various scientific and technological missions. These include communications satellites like Starlink; space stations such as the ISS; scientific satellites like the Hubble; Earth observation satellites from companies like Planet Labs, Umbra, and HawkEye 360; GPS; miniature CubeSats for education and research; and military/defense satellites.

Loading next visibility...
Identifier
48557, 2021-041E
Orbit
LEO
Country
Flag of USUS
Related business
Manufacturer
SpaceX/Seattle
Mission
Operational Commercial Communications
Bus & Motor
STARLINK, Unknown motor
Mass
260 kg wet, ~248 kg dry
Launch date (UTC)
2021-05-15 (5 years ago)
Launch vehicle
FALCON 9
Launch site
Air Force Eastern Test Range (AFETR)
Object type
Payload
Rocket body
Debris
Shape & HBR
Box + 1 Pan, 10.1 m
Radar Cross Section
13.562 m², Large (>1 m²)

Expand to show TLE details & history
Last TLE update: 20 hours ago

TLE from 20 hours ago
0 STARLINK-2155
1 48557U 21041E   25348.78414008  .00002057  00000-0  15699-3 0  9998
2 48557  53.0539 152.7712 0001420  91.9419 268.1733 15.06394135252401
Epoch: 2025-12-14T18:49Z
TLE epoch observation values (Epoch: 2025-12-14T18:49:09.702Z)
Latitude
-0.00001°
Longitude
146.78867°
Altitude
548.14 km
Speed
7.589 km/s
True Right ascension
10h 11m 05s
True Declination
0° 00' 00"
Sunlit
Object was in daylight at epoch
Visualization orbit readout
Latitude
Unknown
Longitude
Unknown
Altitude
Unknown
Speed
Unknown
Apparent Right ascension
Unknown
Apparent Declination
Unknown
Sunlit
N/A
Visualization observer readout
Local Sidereal Time
13:18:22
Azimuth
Unknown
Elevation
Unknown
Doppler factor
Unknown
Orbital elements
Apogee altitude
548.484 km
Perigee altitude
546.517 km
Semi-major axis
6,925.637 km
Eccentricity
0.00014
Inclination
53.0539°
RAAN
152.7712°
Arg. of periapsis
91.9419°
True anomaly
268.15704°
Mean anomaly
268.1733°
Eccentric anomaly
268.16517°
Mean motion
3.76577 °/min
Orbital period
95.6 mins
BSTAR
0.00015699
Loading maneuver chart data...
Computing Atmospheric mass density...
Loading historical data...
Loading historical data...
Loading historical data...
Loading historical data...
Loading historical data...
Loading historical data...
Loading historical data...

Documentation

Showing up to 5 results
|